CW0454 Weather Reports


time (UTC)temp
F
wind
direction
speed
knots
gust
knots
rain 1hr
in
rain 24hr
in
rain mn
in
humidity
%
barometer
mb
20260505041420 61 114 0.9 3.5 0.00 0.00 0.00 72 1009.8
20260505040359 61 124 1.7 6.1 0.00 0.00 0.00 73 1009.8
20260505035420 61 115 0.9 5.2 0.00 0.00 0.00 73 1009.8
20260505034359 61 118 1.7 5.2 0.00 0.00 0.00 73 1009.7
20260505033421 61 120 1.7 6.1 0.00 0.00 0.00 74 1009.7
20260505032359 62 141 1.7 6.1 0.00 0.00 0.00 74 1009.7
20260505031400 62 123 1.7 7.0 0.00 0.00 0.00 73 1009.7
20260505030400 63 124 0.9 7.8 0.00 0.00 0.00 72 1009.8
20260505025359 63 113 2.6 7.8 0.00 0.00 0.00 72 1009.7
20260505024359 63 109 3.5 7.0 0.00 0.00 0.00 71 1009.6
20260505023400 63 118 2.6 7.0 0.00 0.00 0.00 70 1009.7
20260505021359 63 116 2.6 7.8 0.00 0.00 0.00 68 1009.5
20260505020420 63 110 2.6 6.1 0.00 0.00 0.00 67 1009.7
20260505015400 63 126 1.7 8.7 0.00 0.00 0.00 67 1009.5
20260505014359 63 130 1.7 7.0 0.00 0.00 0.00 68 1009.3
20260505013359 63 131 2.6 7.0 0.00 0.00 0.00 69 1009.5
20260505012359 63 114 0.9 3.5 0.00 0.00 0.00 69 1009.5
20260505011400 63 128 1.7 7.0 0.00 0.00 0.00 69 1009.4
20260505010359 63 121 1.7 5.2 0.00 0.00 0.00 68 1009.4
20260505005359 63 104 1.7 6.1 0.00 0.00 0.00 66 1009.2
20260505004400 64 136 1.7 6.1 0.00 0.00 0.00 66 1009.0
20260505003359 64 116 1.7 3.5 0.00 0.00 0.00 65 1009.1
20260505002400 65 123 1.7 4.3 0.00 0.00 0.00 63 1009.1
20260505001421 65 88 1.7 6.1 0.00 0.00 0.00 61 1009.0
20260505000359 66 132 3.5 8.7 0.00 0.00 0.00 60 1009.1
20260504235400 66 129 3.5 8.7 0.00 0.00 0.00 58 1009.2
20260504234420 67 117 2.6 6.1 0.00 0.00 0.00 58 1009.0
20260504233400 68 119 2.6 8.7 0.00 0.00 0.00 55 1009.1
20260504232400 68 130 2.6 8.7 0.00 0.00 0.00 54 1009.1
20260504231400 69 121 3.5 9.6 0.00 0.00 0.00 52 1009.0
20260504230400 69 120 4.3 13.0 0.00 0.00 0.00 50 1009.2
20260504225400 70 81 2.6 9.6 0.00 0.00 0.00 49 1009.1
20260504224359 70 76 0.9 13.0 0.00 0.00 0.00 50 1009.0
20260504223400 71 132 2.6 8.7 0.00 0.00 0.00 49 1009.0
20260504222359 71 138 4.3 12.2 0.00 0.00 0.00 47 1008.9
20260504221400 72 92 2.6 12.2 0.00 0.00 0.00 47 1009.0
20260504220400 73 132 3.5 9.6 0.00 0.00 0.00 47 1009.0
20260504215400 73 125 4.3 12.2 0.00 0.00 0.00 44 1008.9
20260504214400 74 127 5.2 13.0 0.00 0.00 0.00 44 1009.0
20260504213400 74 119 7.0 14.8 0.00 0.00 0.00 44 1009.0
20260504212421 75 103 4.3 12.2 0.00 0.00 0.00 44 1009.1
20260504211400 75 102 4.3 10.4 0.00 0.00 0.00 42 1009.1
20260504210400 75 66 1.7 10.4 0.00 0.00 0.00 43 1009.0
20260504205400 75 87 3.5 9.6 0.00 0.00 0.00 43 1009.2
20260504204400 75 130 3.5 10.4 0.00 0.00 0.00 43 1009.2
20260504203400 75 107 6.1 12.2 0.00 0.00 0.00 42 1009.4
20260504201400 76 71 3.5 10.4 0.00 0.00 0.00 42 1009.2
20260504200400 76 123 2.6 11.3 0.00 0.00 0.00 42 1009.4
20260504195401 76 106 3.5 9.6 0.00 0.00 0.00 42 1009.5
20260504194400 76 113 2.6 9.6 0.00 0.00 0.00 42 1009.8
20260504193401 75 76 2.6 12.2 0.00 0.00 0.00 42 1009.9
20260504192401 75 98 1.7 11.3 0.00 0.00 0.00 43 1010.2
20260504191400 75 55 4.3 10.4 0.00 0.00 0.00 42 1010.2
20260504190401 75 88 3.5 13.0 0.00 0.00 0.00 43 1010.4
20260504185401 74 75 3.5 10.4 0.00 0.00 0.00 43 1010.5
20260504184401 74 77 4.3 10.4 0.00 0.00 0.00 42 1010.7
20260504183401 74 127 3.5 13.9 0.00 0.00 0.00 42 1010.9
20260504182400 74 127 6.1 11.3 0.00 0.00 0.00 42 1010.9
20260504181401 74 38 1.7 9.6 0.00 0.00 0.00 45 1011.1
20260504180400 74 114 2.6 9.6 0.00 0.00 0.00 42 1011.1
20260504175401 74 144 4.3 10.4 0.00 0.00 0.00 41 1011.3
20260504174400 74 57 2.6 7.8 0.00 0.00 0.00 41 1011.5
20260504173401 74 139 1.7 9.6 0.00 0.00 0.00 41 1011.7
20260504172401 74 148 2.6 8.7 0.00 0.00 0.00 39 1011.7
20260504171400 74 101 2.6 6.1 0.00 0.00 0.00 39 1011.8
20260504170401 73 250 4.3 7.8 0.00 0.00 0.00 37 1011.8
20260504160402 71 107 1.7 7.8 0.00 0.00 0.00 41 1012.7
20260504150401 66 237 1.7 6.1 0.00 0.00 0.00 48 1013.3
20260504140402 62 138 0.9 7.0 0.00 0.00 0.00 54 1013.5
20260504130402 58 137 0.9 6.1 0.00 0.00 0.00 59 1013.8
20260504110402 51 130 1.7 5.2 0.00 0.00 0.00 72 1014.4
20260504100402 48 118 1.7 5.2 0.00 0.00 0.00 79 1014.4
20260504081402 49 128 0.0 1.7 0.00 0.00 0.00 75 1014.7
20260504080403 49 128 0.0 3.5 0.00 0.00 0.00 74 1014.8
20260504050359 46 185 0.0 3.5 0.00 0.00 0.00 74 1014.8
20260504045420 46 116 0.9 6.1 0.00 0.00 0.00 75 1014.9
20260504044359 45 122 1.7 5.2 0.00 0.00 0.00 76 1015.1
20260504043359 45 138 0.0 3.5 0.00 0.00 0.00 76 1015.0
20260504042359 45 163 0.9 3.5 0.00 0.00 0.00 77 1015.0